[[{"header":{"parameterUnit":"m.s-1","parameterCategory":1,"la1":30.2991,"la2":30.254,"lo1":-89.0895,"lo2":-89.0444,"dy":0.0017,"dx":0.0017,"nx":28,"ny":28,"refTime":"2025-08-14T03:00:00:Z","depth":0,"parameterNumber":2,"parameterNumberName":"U-component_of_WINDS"},"data":[0,0,0,0,0,0,0,0,0,0,0,0,0,0,0,0,0,0,0,0,0,0,0,0,0,0,0,0,0,0,0,0,0,0,0,0,0,0,0,0,0,0,0,0,0,0,0,0,0,0,0,0,0,0,0,0,0,0,1.2731,1.2731,0,1.2756,1.2756,1.2756,1.2757,1.2757,1.2756,1.2756,1.2782,1.2783,1.2784,0,0,0,0,0,0,0,0,0,0,0,0,0,1.2685,1.2686,1.2731,1.2731,1.2732,1.2756,1.2756,1.2757,1.2757,1.2757,1.2756,1.2756,1.2781,1.2782,1.2784,0,0,0,0,0,0,0,0,0,0,0,0,0,1.2707,1.2686,1.2731,1.2735,1.2735,1.2756,1.2756,1.2757,1.2757,1.2757,1.2756,1.2756,1.2781,1.2782,1.2784,1.2802,0,0,1.2788,1.2789,0,0,0,0,0,0,0,0,1.2706,1.2709,1.2734,1.2734,1.2735,1.2753,1.2749,1.2772,1.2757,1.2749,1.2756,1.2756,1.2772,1.2775,1.278,1.2803,1.2804,1.2788,1.2789,1.279,1.279,0,0,0,0,0,0,0,1.2704,1.2707,1.2741,1.2734,1.2735,1.2736,1.2738,1.2754,1.2763,1.275,1.275,1.2753,1.2773,1.2779,1.2781,1.2805,1.2788,1.279,1.2791,1.2791,1.2846,1.2846,0,0,0,0,0,0,1.2702,1.2706,1.274,1.2742,1.2719,1.2737,1.274,1.2748,1.2763,1.2765,1.2753,1.2753,1.2777,1.2779,1.2782,1.2805,1.279,1.2791,1.2792,1.2845,1.2846,1.2846,0,0,0,0,0,0,1.2701,1.2705,1.2739,1.2724,1.2728,1.2738,1.2747,1.2748,1.2755,1.2765,1.2767,1.2757,1.2776,1.278,1.2797,1.2806,1.2792,1.2793,1.2844,1.2845,1.2846,1.2851,0,0,0,0,0,0,1.2699,1.2704,1.2711,1.2724,1.2729,1.2754,1.2747,1.2749,1.2757,1.2757,1.277,1.2772,1.2776,1.2795,1.2799,1.2808,1.2794,1.2844,1.2845,1.2846,1.285,1.2852,1.2854,0,0,0,0,0,1.2698,1.2711,1.2711,1.2715,1.2738,1.2754,1.2757,1.2762,1.2758,1.2765,1.2772,1.2771,1.2804,1.2797,1.2801,1.2811,1.2843,1.2844,1.2846,1.285,1.2852,1.2854,0,0,0,0,0,0,1.2699,1.2713,1.2713,1.2731,1.2742,1.2754,1.2763,1.2764,1.2776,1.2775,1.2781,1.2784,1.2801,1.2808,1.2799,1.283,1.2823,1.2825,1.2825,1.2827,1.2829,1.2827,1.2796,0,0,0,0,0,1.2701,1.2713,1.2725,1.274,1.2745,1.2753,1.2761,1.2764,1.2775,1.2779,1.2787,1.2798,1.2811,1.2819,1.2832,1.2851,1.2855,1.286,1.2862,1.2863,1.2865,1.2877,1.288,1.2851,1.2851,1.2851,0,0,1.2706,1.2715,1.2722,1.274,1.2749,1.2762,1.2757,1.277,1.278,1.2781,1.2798,1.2805,1.2818,1.2837,1.2845,1.2842,1.2874,1.2865,1.2866,1.2867,1.2879,1.2881,1.2884,1.2851,1.2851,1.2851,0,0,1.2721,1.2729,1.2743,1.2752,1.2765,1.277,1.2774,1.2787,1.2791,1.2809,1.281,1.2822,1.2844,1.2853,1.2861,1.2881,1.2882,1.2885,1.2894,1.2906,1.2908,1.291,1.2918,1.2921,1.2887,1.2887,1.2887,0,1.2726,1.2745,1.275,1.2764,1.2772,1.2774,1.2788,1.2797,1.2813,1.2819,1.2815,1.2844,1.2852,1.2874,1.2879,1.2885,1.289,1.2884,1.2907,1.2909,1.2911,1.2919,1.2922,1.2887,1.2887,1.2887,1.2887,0,1.275,1.2764,1.2773,1.279,1.2799,1.2813,1.2821,1.283,1.2832,1.2839,1.2857,1.2867,1.2883,1.2888,1.289,1.291,1.2908,1.2906,1.29,1.2915,1.2922,1.2925,1.2888,1.2888,1.2888,1.2888,0,0,1.2766,1.2786,1.279,1.2797,1.2812,1.2823,1.2838,1.2853,1.2861,1.2872,1.2885,1.2904,1.2903,1.2911,1.2915,1.2925,1.2942,1.2922,1.2922,1.2926,1.2966,1.2968,1.2971,1.2942,1.2943,1.2943,1.2965,0,1.2784,1.281,1.2816,1.2838,1.2851,1.2854,1.2867,1.2878,1.2884,1.2897,1.2904,1.2918,1.2914,1.2919,1.293,1.2938,1.295,1.2936,1.2955,1.2955,1.2952,1.2975,1.2977,1.2997,1.2968,1.2969,1.2969,0,1.2808,1.2821,1.2845,1.2859,1.2865,1.2876,1.2891,1.2903,1.2916,1.292,1.293,1.2933,1.2949,1.2942,1.2965,1.2955,1.2963,1.2968,1.2969,1.2971,1.2963,1.2978,1.3004,1.3007,1.2973,1.2973,1.2973,0,1.2818,1.2841,1.2859,1.2866,1.2882,1.2891,1.2898,1.2911,1.292,1.2933,1.2939,1.2954,1.2962,1.2974,1.2981,1.2975,1.3003,1.2996,1.3008,1.3008,1.3014,1.3013,1.3041,1.3018,1.3018,1.3018,1.3018,0,1.2838,1.2853,1.2864,1.2875,1.2892,1.2899,1.2915,1.2923,1.2934,1.2947,1.295,1.2962,1.297,1.2984,1.2989,1.3008,1.3011,1.3016,1.3017,1.3016,1.3015,1.3021,1.302,1.3019,1.3019,1.3018,1.3018,0,1.2852,1.286,1.288,1.2895,1.2899,1.2911,1.2924,1.2935,1.2942,1.2958,1.2962,1.2973,1.299,1.2998,1.3018,1.3021,1.3043,1.3043,1.3038,1.3039,1.305,1.3049,1.3083,1.3088,1.3061,1.3062,1.3062,0,1.2864,1.2876,1.2892,1.2901,1.2909,1.2923,1.2933,1.294,1.295,1.2966,1.2975,1.2992,1.3005,1.3031,1.3041,1.3057,1.3058,1.3069,1.306,1.3059,1.3059,1.3058,1.306,1.307,1.307,1.3071,1.3071,0,1.2885,1.2889,1.2902,1.2918,1.2929,1.2942,1.2954,1.2961,1.2971,1.2982,1.2998,1.3009,1.303,1.3046,1.3063,1.3071,1.3073,1.3073,1.3077,1.3076,1.3073,1.3076,1.3043,1.3073,1.3072,1.3072,1.3072,1.3072,1.2899,1.291,1.2924,1.2939,1.2949,1.2961,1.2972,1.2981,1.2995,1.3013,1.3016,1.3034,1.3048,1.3071,1.3079,1.3094,1.3092,1.3096,1.3098,1.3099,1.31,1.307,1.3097,1.3097,1.3097,1.3097,1.3097,0,1.2921,1.293,1.2944,1.2961,1.2974,1.2974,1.2988,1.2999,1.3015,1.3027,1.3041,1.3061,1.3077,1.3089,1.3105,1.3115,1.3116,1.3119,1.3119,1.3121,1.3101,1.3096,1.3118,1.3118,1.3118,1.3118,1.3118,1.3118,1.2934,1.2952,1.2958,1.2982,1.2991,1.3009,1.3017,1.3028,1.3038,1.306,1.3074,1.3082,1.3094,1.3112,1.3128,1.3131,1.3137,1.314,1.3143,1.3124,1.3122,1.312,1.3116,1.3141,1.3141,1.3162,1.3162,1.3163]},{"header":{"parameterUnit":"m.s-1","parameterCategory":1,"la1":30.2991,"la2":30.254,"lo1":-89.0895,"lo2":-89.0444,"dy":0.0017,"dx":0.0017,"nx":28,"ny":28,"refTime":"2025-08-14T03:00:00:Z","depth":0,"parameterNumber":3,"parameterNumberName":"V-component_of_WINDS"},"data":[0,0,0,0,0,0,0,0,0,0,0,0,0,0,0,0,0,0,0,0,0,0,0,0,0,0,0,0,0,0,0,0,0,0,0,0,0,0,0,0,0,0,0,0,0,0,0,0,0,0,0,0,0,0,0,0,0,0,-1.0615,-1.0614,0,-1.0574,-1.0574,-1.0573,-1.0556,-1.0556,-1.0556,-1.0556,-1.0511,-1.051,-1.0509,0,0,0,0,0,0,0,0,0,0,0,0,0,-1.0676,-1.0675,-1.0615,-1.0614,-1.0614,-1.0574,-1.0574,-1.0573,-1.0556,-1.0556,-1.0556,-1.0556,-1.0511,-1.051,-1.0508,0,0,0,0,0,0,0,0,0,0,0,0,0,-1.0644,-1.0675,-1.0615,-1.06,-1.0599,-1.0574,-1.0574,-1.0573,-1.0556,-1.0556,-1.0556,-1.0556,-1.0512,-1.051,-1.0508,-1.0494,0,0,-1.0502,-1.0502,0,0,0,0,0,0,0,0,-1.0646,-1.0642,-1.0603,-1.0601,-1.0599,-1.057,-1.0579,-1.0547,-1.0556,-1.0572,-1.0556,-1.0556,-1.053,-1.0527,-1.0519,-1.0492,-1.049,-1.0502,-1.0501,-1.05,-1.05,0,0,0,0,0,0,0,-1.0648,-1.0643,-1.0599,-1.0602,-1.06,-1.0596,-1.0591,-1.0573,-1.0551,-1.057,-1.0569,-1.0565,-1.0529,-1.0521,-1.0518,-1.049,-1.0502,-1.0501,-1.05,-1.0499,-1.0453,-1.0453,0,0,0,0,0,0,-1.0653,-1.0645,-1.06,-1.0597,-1.0624,-1.0594,-1.0589,-1.0579,-1.0551,-1.0547,-1.0565,-1.0564,-1.0524,-1.052,-1.0516,-1.05,-1.05,-1.0499,-1.0498,-1.0453,-1.0453,-1.0453,0,0,0,0,0,0,-1.0654,-1.0649,-1.0602,-1.0621,-1.0615,-1.0593,-1.0582,-1.0578,-1.057,-1.0547,-1.0543,-1.056,-1.0524,-1.0519,-1.0501,-1.0498,-1.0498,-1.0496,-1.0453,-1.0453,-1.0453,-1.0466,0,0,0,0,0,0,-1.0656,-1.065,-1.0644,-1.0621,-1.0614,-1.0587,-1.0582,-1.0578,-1.0567,-1.0566,-1.0541,-1.0537,-1.0524,-1.0504,-1.0499,-1.0495,-1.0495,-1.0453,-1.0453,-1.0453,-1.0466,-1.0467,-1.0467,0,0,0,0,0,-1.0659,-1.0648,-1.0644,-1.0639,-1.0607,-1.0587,-1.0583,-1.0568,-1.0567,-1.0561,-1.0547,-1.0538,-1.0499,-1.0502,-1.0497,-1.0492,-1.0453,-1.0453,-1.0453,-1.0466,-1.0466,-1.0467,0,0,0,0,0,0,-1.067,-1.0645,-1.064,-1.0622,-1.0607,-1.0584,-1.0576,-1.0569,-1.0553,-1.0552,-1.0534,-1.0529,-1.0513,-1.0501,-1.0504,-1.0479,-1.0476,-1.0474,-1.0487,-1.0488,-1.0489,-1.0492,-1.0493,0,0,0,0,0,-1.0671,-1.0657,-1.0636,-1.0622,-1.0615,-1.0597,-1.0588,-1.0579,-1.0562,-1.0555,-1.0539,-1.0523,-1.0507,-1.0497,-1.0481,-1.0465,-1.046,-1.0459,-1.046,-1.046,-1.0459,-1.0452,-1.0452,-1.0452,-1.0452,-1.0452,0,0,-1.0671,-1.0656,-1.0648,-1.0624,-1.0611,-1.0598,-1.0592,-1.0577,-1.0568,-1.0552,-1.0535,-1.0523,-1.0504,-1.0487,-1.0479,-1.0477,-1.0459,-1.046,-1.0461,-1.0459,-1.0452,-1.0452,-1.0452,-1.0452,-1.0452,-1.0452,0,0,-1.0665,-1.0652,-1.0641,-1.0629,-1.0611,-1.0599,-1.0597,-1.0576,-1.0568,-1.0551,-1.054,-1.0528,-1.05,-1.0488,-1.0478,-1.0472,-1.0463,-1.0467,-1.047,-1.0463,-1.0463,-1.0463,-1.0462,-1.0462,-1.0466,-1.0466,-1.0466,0,-1.0668,-1.0648,-1.0635,-1.0623,-1.0613,-1.0601,-1.059,-1.0578,-1.0555,-1.0549,-1.0547,-1.0515,-1.0501,-1.0482,-1.0481,-1.0473,-1.047,-1.0469,-1.0464,-1.0464,-1.0464,-1.0462,-1.0462,-1.0467,-1.0467,-1.0467,-1.0467,0,-1.0653,-1.064,-1.0633,-1.0613,-1.0603,-1.0591,-1.0576,-1.0567,-1.056,-1.0549,-1.0532,-1.0516,-1.0497,-1.0492,-1.0483,-1.0473,-1.0473,-1.0468,-1.0464,-1.0465,-1.0463,-1.0463,-1.0468,-1.0467,-1.0467,-1.0467,0,0,-1.0651,-1.0627,-1.0625,-1.0617,-1.0597,-1.0587,-1.0575,-1.0559,-1.0552,-1.0537,-1.0527,-1.0507,-1.0503,-1.0492,-1.0482,-1.0476,-1.0474,-1.0472,-1.0471,-1.0474,-1.0464,-1.0468,-1.0467,-1.0469,-1.0469,-1.0469,-1.0466,0,-1.0644,-1.0623,-1.0612,-1.0596,-1.0584,-1.0574,-1.0564,-1.0551,-1.0542,-1.053,-1.0519,-1.0506,-1.0501,-1.0495,-1.0488,-1.0476,-1.0472,-1.0476,-1.046,-1.0459,-1.0465,-1.0466,-1.047,-1.0468,-1.0465,-1.0465,-1.0465,0,-1.0631,-1.0619,-1.0602,-1.0587,-1.0582,-1.0573,-1.0559,-1.0548,-1.0534,-1.0527,-1.0517,-1.0508,-1.0496,-1.0494,-1.0477,-1.048,-1.0473,-1.0467,-1.0466,-1.0464,-1.0462,-1.0465,-1.0466,-1.0466,-1.0464,-1.0464,-1.0464,0,-1.0633,-1.0612,-1.06,-1.0593,-1.0575,-1.0569,-1.0561,-1.0547,-1.0539,-1.0527,-1.0522,-1.0507,-1.05,-1.0489,-1.0477,-1.0476,-1.0462,-1.0459,-1.0457,-1.0457,-1.0453,-1.0454,-1.0455,-1.0449,-1.0449,-1.0449,-1.0449,0,-1.0625,-1.0615,-1.0601,-1.0593,-1.0583,-1.0571,-1.0561,-1.0552,-1.0541,-1.0531,-1.0522,-1.0513,-1.0498,-1.0488,-1.0478,-1.0467,-1.0463,-1.0458,-1.0456,-1.0459,-1.046,-1.0454,-1.0454,-1.0449,-1.0449,-1.0449,-1.0449,0,-1.0624,-1.0614,-1.0601,-1.0586,-1.0582,-1.0575,-1.0562,-1.0554,-1.0545,-1.0534,-1.0531,-1.0517,-1.0505,-1.0492,-1.0475,-1.0469,-1.0458,-1.0454,-1.0463,-1.0462,-1.0461,-1.0462,-1.0458,-1.0457,-1.0452,-1.0452,-1.0452,0,-1.062,-1.0613,-1.0598,-1.0592,-1.0585,-1.0575,-1.0568,-1.0557,-1.055,-1.0535,-1.053,-1.0518,-1.0507,-1.0489,-1.0476,-1.0464,-1.046,-1.046,-1.0458,-1.0463,-1.0461,-1.0462,-1.0462,-1.046,-1.046,-1.046,-1.0461,0,-1.0614,-1.0611,-1.0601,-1.059,-1.0582,-1.0573,-1.0563,-1.0559,-1.0546,-1.0539,-1.0527,-1.052,-1.0504,-1.0492,-1.0479,-1.0471,-1.0464,-1.0462,-1.0461,-1.0464,-1.047,-1.0468,-1.0465,-1.0461,-1.0461,-1.0461,-1.0461,-1.0461,-1.0612,-1.0606,-1.0596,-1.0586,-1.0578,-1.057,-1.0564,-1.0555,-1.0546,-1.0533,-1.0528,-1.0517,-1.0505,-1.0487,-1.0479,-1.0471,-1.0469,-1.0467,-1.0466,-1.0466,-1.0468,-1.0472,-1.0468,-1.0468,-1.0468,-1.0468,-1.0468,0,-1.0607,-1.06,-1.0592,-1.058,-1.0573,-1.0569,-1.0559,-1.0553,-1.0544,-1.0534,-1.0525,-1.0514,-1.0503,-1.0492,-1.048,-1.0476,-1.0473,-1.0473,-1.0473,-1.0472,-1.047,-1.0472,-1.0476,-1.0476,-1.0476,-1.0476,-1.0476,-1.0476,-1.0603,-1.0593,-1.0589,-1.0576,-1.057,-1.056,-1.0555,-1.0548,-1.0541,-1.0528,-1.052,-1.0514,-1.0504,-1.0493,-1.0483,-1.048,-1.0477,-1.0479,-1.0475,-1.0473,-1.0472,-1.0471,-1.0473,-1.0478,-1.0478,-1.0478,-1.0478,-1.0478]}]]